Погода в Сент-Луисе

США     38°38′08″N   90°14′26″W
темп.,
°C
ветер,
м/с
пор.,
м/с
влажн.,
%
обл.,
%
осадки,
мм/ч
давл.,
гПа
погр.,
м
4 июля, пн
пн401:00+25юв3782100 0.0 1017242
04:00+24юв2585100 0.0 1017176
07:00+24ююв258313 0.0 1017205
10:00+30ююв3360100 0.0 1017858
13:00+34ю344641 0.1 10162049
16:00+35ю3445100 0.0 10141450
19:00+32ююв475684 0.0 1014698
22:00+29ю41066100 0.0 1014451
5 июля, вт
вт501:00+28ююз310690 0.0 1014372
04:00+26ююз39740 0.0 1013282
07:00+27ююз28751 0.0 1014258
10:00+33зюз35490 0.0 1014767
13:00+38з33349 0.0 10132405
16:00+39сз233082 0.0 10112843
19:00+34в355089 0.0 1011492
22:00+30вюв1462100 0.4 1013202
6 июля, ср
ср601:00+28ююв39660 0.7 1013228
04:00+27ю24710 0.0 1013139
07:00+28ююз256621 0.0 1014137
10:00+35юз234143 0.0 1013691
13:00+39зсз243188 0.0 10122788
16:00+35всв664898 0.0 1011847
19:00+30вюв4668100 0.6 1013574
22:00+26юв3778100 0.4 1013238
7 июля, чт
чт701:00+26ююв377369 0.4 1012200
04:00+26ююз2774100 0.0 1012191
07:00+27ююз256891 0.0 1013157
10:00+34зсз24440 0.0 1013764
13:00+38ссз23350 0.0 10121909
16:00+34в585022 0.0 1011652
19:00+31ююв6962100 0.3 1012382
22:00+26ю5972100 0.3 1013232
8 июля, пт
пт801:00+29ююз51554100 0.3 1012449
04:00+28юз3126137 0.0 1012365
07:00+28вюв016766 0.0 101347
10:00+34зюз244499 0.0 1013666
13:00+39юз4632100 0.0 10121694
16:00+41зюз5925100 0.0 10103627
19:00+32ссв486363 0.0 1011309
22:00+29в35751 0.0 1012161